PulseSat

PulseSat

INTELSAT 904 (IS-904)

Last updated on Dec. 16, 2018, 12:08 a.m. UTC

1 27380U 02007A   18349.64074284  .00000149  00000-0  00000+0 0  9992
2 27380   0.1906 101.3413 0000637  96.0225 162.6485  1.00271534 61610
UTC
Height (km)
Latitude
Longitude
Inclination
Orbital Period

Next 30 passes for location: Hong Kong

Rise time Rise Azimuth (degrees) Set time Set Azimuth (degrees) Duration Max altitude (degrees)

No matching passes for this satellites

PulseSat

PulseSat is the new satellites software and hardware trackering solution by Pulsely.
Satellite Two Line Element Set source: US Air Force Space Command

Download PulseSat for iOS
© 2017 Pulsely Limited